W5DRO-13 Weather Reports


time (UTC)temp
C
wind
direction
speed
KPH
gust
KPH
rain 1hr
cm
rain 24hr
cm
rain mn
cm
humidity
%
barometer
mb
20260510045238 16 244 3.2 9.7 3.35 0.69 0.69 90 1016.7
20260510044734 17 30 8.0 22.5 2.77 0.51 0.51 88 1016.7
20260510044233 17 175 6.4 20.9 0.48 0.13 0.13 83 1016.5
20260510043727 18 287 11.3 20.9 0.00 0.05 0.05 78 1016.2
20260510043225 18 36 1.6 3.2 0.13 0.05 0.05 76 1015.6
20260510042722 19 298 0.0 1.6 0.13 0.05 0.05 73 1013.7
20260510042217 20 312 1.6 1.6 0.00 0.03 0.03 66 1013.5
20260510041715 20 49 0.0 1.6 0.00 0.03 0.03 63 1013.4
20260510041212 21 42 0.0 3.2 0.00 0.03 0.03 58 1013.5
20260510040709 21 56 1.6 3.2 0.00 0.03 0.03 56 1013.6
20260510040206 21 11 0.0 3.2 0.00 0.03 0.03 51 1013.4
20260510035701 22 358 0.0 3.2 0.00 0.03 0.03 49 1013.1
20260510035157 22 52 0.0 0.0 0.00 0.03 0.03 50 1012.8
20260510034653 22 7 1.6 3.2 0.00 0.03 0.03 48 1012.3
20260510034151 22 24 1.6 3.2 0.00 0.03 0.03 49 1011.5
20260510033647 22 35 3.2 6.4 0.00 0.03 0.03 48 1011.3
20260510033145 22 54 0.0 1.6 0.00 0.03 0.03 50 1011.2
20260510032641 21 244 0.0 1.6 0.00 0.03 0.03 49 1011.2
20260510032137 21 249 0.0 1.6 0.00 0.03 0.03 50 1011.2
20260510031632 21 356 0.0 0.0 0.00 0.03 0.03 52 1011.1
20260510031129 22 25 0.0 0.0 0.00 0.03 0.03 52 1011.0
20260510030628 22 22 0.0 0.0 0.00 0.03 0.03 51 1011.0
20260510030126 22 22 0.0 0.0 0.00 0.03 0.03 51 1011.1
20260510025623 22 22 0.0 0.0 0.00 0.03 0.03 51 1011.2
20260510025121 22 22 0.0 1.6 0.00 0.03 0.03 52 1011.4
20260510024617 22 14 0.0 0.0 0.00 0.03 0.03 52 1011.2
20260510024114 22 14 0.0 0.0 0.00 0.03 0.03 52 1011.2
20260510023610 22 14 0.0 0.0 0.00 0.03 0.03 52 1011.1
20260510023108 22 14 0.0 0.0 0.00 0.03 0.03 51 1011.1
20260510022607 22 14 0.0 1.6 0.00 0.03 0.03 52 1010.9
20260510022102 22 14 0.0 0.0 0.00 0.03 0.03 52 1010.8
20260510021558 22 13 0.0 1.6 0.00 0.03 0.03 53 1010.6
20260510021056 22 23 0.0 0.0 0.00 0.03 0.03 52 1010.3
20260510020555 22 23 0.0 0.0 0.00 0.03 0.03 51 1009.9
20260510020051 22 12 0.0 0.0 0.00 0.03 0.03 51 1009.2
20260510015547 22 13 0.0 1.6 0.00 0.03 0.03 51 1009.0
20260510015044 22 13 0.0 0.0 0.00 0.03 0.03 51 1008.7
20260510014540 22 119 0.0 0.0 0.00 0.03 0.03 51 1008.9
20260510014037 22 119 0.0 0.0 0.00 0.03 0.03 51 1008.6
20260510013532 23 119 0.0 0.0 0.00 0.03 0.03 52 1008.7
20260510013028 23 119 0.0 0.0 0.00 0.03 0.03 50 1008.9
20260510012528 23 137 0.0 0.0 0.00 0.03 0.03 50 1008.6
20260510012025 23 137 0.0 0.0 0.00 0.03 0.03 49 1008.7
20260510011524 23 137 0.0 0.0 0.00 0.03 0.03 49 1008.8
20260510011020 24 137 0.0 0.0 0.00 0.03 0.03 48 1008.6
20260510010517 24 137 0.0 0.0 0.00 0.03 0.03 47 1008.4
20260510010014 24 128 0.0 0.0 0.00 0.03 0.03 46 1008.6
20260510005510 25 128 0.0 0.0 0.00 0.03 0.03 45 1008.6
20260510005008 25 175 0.0 0.0 0.00 0.03 0.03 46 1008.8
20260510004505 25 175 0.0 0.0 0.00 0.03 0.03 45 1008.8
20260510004003 25 175 0.0 0.0 0.00 0.03 0.03 45 1008.9
20260510003459 26 175 0.0 0.0 0.00 0.03 0.03 44 1009.0
20260510002954 26 175 0.0 0.0 0.00 0.03 0.03 43 1009.0
20260510002450 27 175 0.0 0.0 0.00 0.03 0.03 42 1009.0
20260510001947 27 175 0.0 0.0 0.00 0.03 0.03 41 1008.9
20260510001444 28 175 0.0 0.0 0.00 0.03 0.03 39 1008.9
20260510000942 28 14 0.0 0.0 0.00 0.03 0.03 37 1009.0
20260510000440 29 14 0.0 0.0 0.00 0.03 0.03 36 1008.9
20260509235935 30 9 0.0 0.0 0.00 0.03 0.03 36 1008.8
20260509235432 30 89 0.0 3.2 0.00 0.03 0.03 34 1009.0
20260509234928 30 226 0.0 0.0 0.00 0.03 0.03 34 1009.0
20260509234425 31 151 0.0 0.0 0.00 0.03 0.03 32 1009.0
20260509233923 31 261 0.0 1.6 0.00 0.03 0.03 33 1008.8
20260509233420 31 68 0.0 1.6 0.00 0.03 0.03 32 1008.9
20260509232916 31 223 0.0 1.6 0.00 0.03 0.03 31 1008.9
20260509232414 31 242 0.0 0.0 0.00 0.03 0.03 30 1008.9
20260509231909 31 202 0.0 1.6 0.00 0.03 0.03 31 1009.0
20260509231406 31 238 0.0 1.6 0.00 0.03 0.03 31 1008.9
20260509230905 31 48 0.0 1.6 0.00 0.03 0.03 30 1008.9
20260509230401 32 72 0.0 1.6 0.00 0.03 0.03 30 1009.1
20260509225857 32 185 0.0 1.6 0.00 0.03 0.03 29 1009.2
20260509225354 32 218 0.0 1.6 0.00 0.03 0.03 29 1009.3
20260509224849 32 210 0.0 1.6 0.00 0.03 0.03 29 1009.2
20260509224345 32 221 0.0 3.2 0.00 0.03 0.03 29 1009.3
20260509223843 32 164 1.6 1.6 0.00 0.03 0.03 27 1009.5
20260509223339 32 221 0.0 0.0 0.00 0.03 0.03 28 1009.4
20260509222837 32 230 0.0 0.0 0.00 0.03 0.03 28 1009.5
20260509222331 32 89 0.0 1.6 0.00 0.03 0.03 30 1009.5
20260509221827 32 45 0.0 4.8 0.00 0.03 0.03 29 1009.6
20260509221325 32 46 0.0 1.6 0.00 0.03 0.03 26 1009.6
20260509220825 32 141 0.0 1.6 0.00 0.03 0.03 28 1009.6
20260509220321 33 228 0.0 1.6 0.00 0.03 0.03 28 1009.4
20260509215817 33 257 0.0 3.2 0.00 0.03 0.03 27 1009.5
20260509215314 32 46 0.0 3.2 0.00 0.03 0.03 28 1009.5
20260509214811 32 241 0.0 1.6 0.00 0.03 0.03 28 1009.4
20260509214308 32 227 1.6 3.2 0.00 0.03 0.03 27 1009.7
20260509213805 33 53 4.8 4.8 0.00 0.03 0.03 25 1009.5
20260509213300 32 58 0.0 0.0 0.00 0.03 0.03 27 1009.8
20260509212758 32 26 0.0 0.0 0.00 0.03 0.03 29 1009.6
20260509212255 31 135 1.6 3.2 0.00 0.03 0.03 28 1009.7
20260509211750 32 244 3.2 4.8 0.00 0.03 0.03 25 1009.9
20260509211247 32 226 0.0 1.6 0.00 0.03 0.03 30 1009.9
20260509210743 31 52 1.6 3.2 0.00 0.03 0.03 27 1010.2
20260509210242 31 110 4.8 6.4 0.00 0.03 0.03 29 1009.9
20260509205741 31 49 0.0 3.2 0.00 0.03 0.03 29 1010.0
20260509205236 32 53 1.6 4.8 0.00 0.03 0.03 29 1010.2
20260509204732 32 26 0.0 9.7 0.00 0.03 0.03 27 1010.1
20260509204229 31 34 0.0 1.6 0.00 0.03 0.03 28 1010.2
20260509203724 31 33 3.2 3.2 0.00 0.03 0.03 27 1010.2
20260509203223 32 23 4.8 6.4 0.00 0.03 0.03 27 1010.3
20260509202718 31 60 1.6 4.8 0.00 0.03 0.03 29 1010.1
20260509202214 32 55 1.6 1.6 0.00 0.03 0.03 26 1010.4
20260509201709 32 204 1.6 6.4 0.00 0.03 0.03 28 1010.2
20260509201206 33 40 0.0 1.6 0.00 0.03 0.03 27 1010.6
20260509200702 32 6 0.0 4.8 0.00 0.03 0.03 27 1010.4
20260509200157 33 27 1.6 3.2 0.00 0.03 0.03 26 1010.4
20260509195653 33 315 0.0 1.6 0.00 0.03 0.03 25 1010.8
20260509195149 33 194 1.6 3.2 0.00 0.03 0.03 25 1010.8
20260509194649 32 161 0.0 3.2 0.00 0.03 0.03 26 1010.8
20260509194146 33 49 3.2 3.2 0.00 0.03 0.03 22 1011.0
20260509193642 32 295 0.0 1.6 0.00 0.03 0.03 25 1011.1
20260509193137 32 209 1.6 3.2 0.00 0.03 0.03 24 1011.4
20260509192634 32 275 0.0 1.6 0.00 0.03 0.03 25 1011.3
20260509192130 32 274 1.6 1.6 0.00 0.03 0.03 24 1011.4
20260509191629 32 269 3.2 3.2 0.00 0.03 0.03 23 1011.3
20260509191126 31 245 0.0 1.6 0.00 0.03 0.03 28 1011.3
20260509190623 31 74 0.0 0.0 0.00 0.03 0.03 30 1011.3
20260509190120 31 68 1.6 4.8 0.00 0.03 0.03 28 1011.3
20260509185618 31 249 0.0 3.2 0.00 0.03 0.03 26 1011.3
20260509185114 32 31 0.0 0.0 0.00 0.03 0.03 26 1011.6
20260509184612 31 34 0.0 0.0 0.00 0.03 0.03 27 1011.4
20260509184108 32 185 1.6 3.2 0.00 0.03 0.03 26 1011.4
20260509183604 31 302 0.0 1.6 0.00 0.03 0.03 25 1011.7
20260509183100 31 268 0.0 1.6 0.00 0.03 0.03 28 1011.8
20260509182556 31 55 0.0 3.2 0.00 0.03 0.03 30 1011.7
20260509182053 31 318 0.0 1.6 0.00 0.03 0.03 25 1011.7
20260509181552 31 206 1.6 1.6 0.00 0.03 0.03 28 1011.8
20260509181048 31 74 0.0 1.6 0.00 0.03 0.03 27 1011.8
20260509180544 31 27 0.0 1.6 0.00 0.03 0.03 28 1011.9
20260509180042 31 303 1.6 1.6 0.00 0.03 0.03 30 1011.8
20260509175537 31 57 0.0 1.6 0.00 0.03 0.03 31 1012.2
20260509175034 30 218 1.6 3.2 0.00 0.03 0.03 29 1012.1
20260509174531 31 48 0.0 3.2 0.00 0.03 0.03 32 1011.9
20260509174026 30 102 0.0 3.2 0.00 0.03 0.03 35 1012.3
20260509173520 30 63 3.2 3.2 0.00 0.03 0.03 34 1012.1
20260509173017 30 50 0.0 1.6 0.00 0.03 0.03 35 1012.4
20260509172514 30 18 1.6 3.2 0.00 0.03 0.03 32 1012.4
20260509172010 30 98 0.0 1.6 0.00 0.03 0.03 36 1012.3
20260509171506 30 109 0.0 0.0 0.00 0.03 0.03 34 1012.1
20260509171003 29 55 0.0 0.0 0.00 0.03 0.03 37 1012.0
20260509170458 29 107 0.0 1.6 0.00 0.03 0.03 39 1012.3
20260509165954 28 27 0.0 1.6 0.00 0.03 0.03 44 1012.7
20260509165453 28 55 1.6 3.2 0.00 0.03 0.03 45 1012.7
20260509164949 27 44 1.6 3.2 0.00 0.03 0.03 45 1012.7
20260509164445 27 69 0.0 3.2 0.00 0.03 0.03 50 1012.9
20260509163941 27 33 0.0 1.6 0.00 0.03 0.03 50 1013.1
20260509163439 26 279 0.0 0.0 0.00 0.03 0.03 55 1012.9
20260509162937 26 243 0.0 1.6 0.00 0.03 0.03 53 1013.1
20260509162437 26 10 0.0 0.0 0.00 0.03 0.03 53 1013.0
20260509161932 26 10 0.0 0.0 0.00 0.03 0.03 54 1012.9
20260509161429 26 10 0.0 0.0 0.00 0.03 0.03 53 1012.7
20260509160924 26 26 1.6 1.6 0.00 0.03 0.03 54 1012.9
20260509160420 26 55 0.0 0.0 0.00 0.03 0.03 57 1013.3
20260509155915 26 55 0.0 0.0 0.00 0.03 0.03 52 1012.8
20260509155412 27 35 0.0 1.6 0.00 0.03 0.03 50 1012.8
20260509154909 27 22 0.0 1.6 0.00 0.03 0.03 52 1012.9
20260509154405 26 263 1.6 3.2 0.00 0.03 0.03 54 1013.0
20260509153902 27 4 0.0 3.2 0.00 0.03 0.03 52 1013.0
20260509153359 27 291 0.0 1.6 0.00 0.03 0.03 56 1013.0
20260509152856 26 261 0.0 1.6 0.00 0.03 0.03 61 1012.9
20260509152352 25 225 0.0 1.6 0.00 0.03 0.03 60 1012.9
20260509151849 24 26 0.0 1.6 0.00 0.03 0.03 65 1012.8
20260509151345 25 54 3.2 6.4 0.00 0.03 0.03 61 1012.7
20260509150844 23 78 0.0 0.0 0.00 0.03 0.03 69 1012.6
20260509150341 23 183 0.0 1.6 0.00 0.03 0.03 68 1012.7
20260509145839 22 277 0.0 1.6 0.00 0.03 0.03 68 1012.8
20260509145338 22 279 0.0 0.0 0.00 0.03 0.03 71 1012.9
20260509144835 21 256 0.0 1.6 0.00 0.03 0.03 73 1012.8
20260509144332 21 249 0.0 1.6 0.00 0.03 0.03 75 1012.9
20260509143829 21 271 3.2 3.2 0.00 0.03 0.03 75 1012.7
20260509143327 20 356 0.0 0.0 0.00 0.03 0.03 80 1012.8
20260509142823 20 244 0.0 0.0 0.00 0.03 0.03 83 1012.8
20260509142319 18 21 0.0 0.0 0.00 0.03 0.03 87 1012.8
20260509141815 17 21 0.0 0.0 0.00 0.03 0.03 95 1012.7
20260509141312 16 21 0.0 0.0 0.00 0.03 0.03 97 1012.6
20260509140808 16 347 0.0 0.0 0.00 0.03 0.03 97 1012.5
20260509140306 16 347 0.0 0.0 0.00 0.03 0.03 98 1012.5
20260509135803 16 347 0.0 0.0 0.18 0.03 0.03 98 1012.6
20260509135301 15 347 0.0 0.0 0.18 0.03 0.03 98 1012.6
20260509134758 15 347 0.0 1.6 0.00 0.00 0.00 98 1012.5
20260509134255 15 347 0.0 1.6 0.00 0.00 0.00 98 1012.6
20260509133752 15 347 0.0 0.0 0.00 0.00 0.00 98 1012.6
20260509133248 14 347 0.0 0.0 0.00 0.00 0.00 98 1012.5
20260509132747 13 347 0.0 0.0 0.00 0.00 0.00 98 1012.6
20260509132246 13 347 0.0 0.0 0.00 0.00 0.00 98 1012.7
20260509131742 13 347 0.0 0.0 0.00 0.00 0.00 98 1012.5
20260509131239 13 347 0.0 0.0 0.00 0.00 0.00 98 1012.3
20260509130735 12 347 0.0 0.0 0.00 0.00 0.00 98 1012.3
20260509130230 12 347 0.0 0.0 0.00 0.00 0.00 98 1012.5
20260509125727 12 347 0.0 0.0 0.00 0.00 0.00 98 1012.3
20260509125225 11 347 0.0 0.0 0.00 0.00 0.00 98 1012.5
20260509124721 11 347 0.0 0.0 0.00 0.00 0.00 98 1012.3
20260509124217 10 347 0.0 0.0 0.00 0.00 0.00 98 1012.0
20260509123716 10 347 0.0 0.0 0.00 0.00 0.00 98 1012.2
20260509123212 10 347 0.0 0.0 0.00 0.00 0.00 98 1011.9
20260509122708 10 347 0.0 0.0 0.00 0.00 0.00 98 1011.9
20260509122205 10 347 0.0 0.0 0.00 0.00 0.00 98 1011.7
20260509121701 10 347 0.0 0.0 0.00 0.00 0.00 98 1011.8
20260509121159 9 347 0.0 0.0 0.00 0.00 0.00 97 1011.8
20260509120657 9 347 0.0 0.0 0.00 0.00 0.00 97 1011.5
20260509120155 9 347 0.0 0.0 0.00 0.00 0.00 97 1011.6
20260509115652 8 347 0.0 0.0 0.00 0.00 0.00 97 1011.5
20260509115150 8 347 0.0 0.0 0.00 0.00 0.00 97 1011.6
20260509114648 9 347 0.0 0.0 0.00 0.00 0.00 97 1011.4
20260509114147 9 347 0.0 0.0 0.00 0.00 0.00 97 1011.4
20260509113644 9 347 0.0 0.0 0.00 0.00 0.00 97 1011.5
20260509113141 9 347 0.0 0.0 0.00 0.00 0.00 97 1011.5
20260509112638 9 347 0.0 0.0 0.00 0.00 0.00 97 1011.4
20260509112135 10 347 0.0 0.0 0.00 0.00 0.00 97 1011.5
20260509111632 10 347 0.0 0.0 0.00 0.00 0.00 97 1011.3
20260509111129 10 347 0.0 0.0 0.00 0.00 0.00 97 1011.2
20260509110626 10 347 0.0 0.0 0.00 0.00 0.00 97 1011.3
20260509110123 10 347 0.0 0.0 0.00 0.00 0.00 97 1011.3
20260509105621 10 347 0.0 0.0 0.00 0.00 0.00 97 1011.3
20260509105119 10 347 0.0 0.0 0.00 0.00 0.00 97 1011.3
20260509104615 10 347 0.0 0.0 0.00 0.00 0.00 97 1011.2
20260509104112 10 347 0.0 0.0 0.00 0.00 0.00 97 1011.4
20260509103610 10 347 0.0 0.0 0.00 0.00 0.00 97 1011.4
20260509103108 10 347 0.0 0.0 0.00 0.00 0.00 97 1011.5
20260509102605 10 347 0.0 0.0 0.00 0.00 0.00 97 1011.3
20260509102102 10 347 0.0 0.0 0.00 0.00 0.00 97 1011.6
20260509101558 10 347 0.0 0.0 0.00 0.00 0.00 97 1011.3
20260509101055 10 347 0.0 0.0 0.00 0.00 0.00 97 1011.6
20260509100552 10 347 0.0 0.0 0.00 0.00 0.00 97 1011.6
20260509100049 10 347 0.0 0.0 0.00 0.00 0.00 97 1011.8
20260509095546 10 347 0.0 0.0 0.00 0.00 0.00 97 1011.6
20260509095044 11 347 0.0 0.0 0.00 0.00 0.00 97 1011.6
20260509094539 11 347 0.0 0.0 0.00 0.00 0.00 97 1011.6
20260509094037 11 347 0.0 0.0 0.00 0.00 0.00 97 1011.5
20260509093535 11 347 0.0 0.0 0.00 0.00 0.00 97 1011.6
20260509093032 11 347 0.0 0.0 0.00 0.00 0.00 96 1011.7
20260509092530 11 347 0.0 0.0 0.00 0.00 0.00 96 1011.7
20260509092029 11 347 0.0 0.0 0.00 0.00 0.00 96 1011.8
20260509091525 11 347 0.0 0.0 0.00 0.00 0.00 96 1011.7
20260509091022 11 347 0.0 0.0 0.00 0.00 0.00 96 1011.9
20260509090519 11 347 0.0 0.0 0.00 0.00 0.00 96 1011.8
20260509090017 11 347 0.0 0.0 0.00 0.00 0.00 96 1011.7
20260509085514 11 347 0.0 0.0 0.00 0.00 0.00 96 1011.7
20260509085010 11 347 0.0 0.0 0.00 0.00 0.00 96 1011.7
20260509084507 11 347 0.0 0.0 0.00 0.00 0.00 96 1011.8
20260509084004 12 347 0.0 0.0 0.00 0.00 0.00 96 1011.7
20260509083501 12 347 0.0 0.0 0.00 0.00 0.00 96 1011.6
20260509082957 12 347 0.0 0.0 0.00 0.00 0.00 96 1011.5
20260509082455 12 347 0.0 0.0 0.00 0.00 0.00 96 1011.6
20260509081952 12 347 0.0 0.0 0.00 0.00 0.00 96 1011.6
20260509081450 12 347 0.0 0.0 0.00 0.00 0.00 96 1011.8
20260509080946 12 347 0.0 0.0 0.00 0.00 0.00 96 1011.9
20260509080445 12 347 0.0 0.0 0.00 0.00 0.00 96 1011.9
20260509075942 12 347 0.0 0.0 0.00 0.00 0.00 96 1012.1
20260509075439 12 347 0.0 0.0 0.00 0.00 0.00 96 1012.2
20260509074937 12 347 0.0 0.0 0.00 0.00 0.00 96 1011.9
20260509074435 12 347 0.0 0.0 0.00 0.00 0.00 96 1012.2
20260509073930 12 347 0.0 0.0 0.00 0.00 0.00 95 1012.1
20260509073427 12 347 0.0 0.0 0.00 0.00 0.00 95 1012.2
20260509072924 12 347 0.0 0.0 0.00 0.00 0.00 95 1012.0
20260509072421 12 347 0.0 0.0 0.00 0.00 0.00 95 1012.3
20260509071917 12 347 0.0 0.0 0.00 0.00 0.00 95 1012.2
20260509071414 12 347 0.0 0.0 0.00 0.00 0.00 95 1012.0
20260509070912 12 347 0.0 0.0 0.00 0.00 0.00 95 1012.0
20260509070408 12 347 0.0 0.0 0.00 0.00 0.00 95 1011.8
20260509065904 13 347 0.0 0.0 0.00 0.00 0.00 95 1012.1
20260509065400 13 347 0.0 0.0 0.00 0.00 0.00 95 1012.2
20260509064856 13 347 0.0 0.0 0.00 0.00 0.00 95 1012.1
20260509064354 13 347 0.0 0.0 0.00 0.00 0.00 95 1012.2
20260509063852 13 347 0.0 0.0 0.00 0.00 0.00 94 1012.2
20260509063348 13 347 0.0 0.0 0.00 0.00 0.00 94 1012.4
20260509062845 13 347 0.0 0.0 0.00 0.00 0.00 94 1012.4
20260509062342 13 347 0.0 0.0 0.00 0.00 0.00 94 1012.3
20260509061839 13 347 0.0 0.0 0.00 0.00 0.00 94 1012.3
20260509061337 13 347 0.0 0.0 0.00 0.00 0.00 94 1012.3
20260509060834 13 347 0.0 0.0 0.00 0.00 0.00 93 1012.3
20260509060331 13 347 0.0 0.0 0.00 0.00 0.00 93 1012.6
20260509055826 14 347 0.0 0.0 0.00 0.00 0.00 93 1012.3
20260509055321 14 347 0.0 0.0 0.00 0.00 0.00 93 1012.3
20260509054819 14 347 0.0 0.0 0.00 0.00 0.00 93 1012.2
20260509054315 14 347 0.0 0.0 0.00 0.00 0.00 92 1012.2
20260509053814 14 347 0.0 0.0 0.00 0.00 0.00 92 1012.1
20260509053311 14 347 0.0 0.0 0.00 0.00 0.00 92 1012.2
20260509052809 15 347 0.0 0.0 0.00 0.00 0.00 91 1012.4
20260509052307 15 347 0.0 0.0 0.00 0.00 0.00 91 1012.1
20260509051804 15 347 0.0 0.0 0.00 0.00 0.00 91 1012.3
20260509051302 15 347 0.0 0.0 0.00 0.00 0.00 91 1012.2
20260509050758 15 347 0.0 0.0 0.00 0.00 0.00 91 1012.1
20260509050254 15 347 0.0 0.0 0.00 0.00 0.00 91 1012.1
20260509045752 15 347 0.0 0.0 0.00 0.00 0.00 91 1012.0